Location: Coopersdale
(40.3556°N, 78.9372°W)
Time: 00:48:45
(UTC+00:00)

Tiros 1 - Pass Details

Date: 23 January 2021
Orbit: 630 x 664 km, 48.4° (Epoch: 06 March)

Event Time Altitude Azimuth Distance (km) Brightness Sun altitude
Rises 01:16:07 0° 269° (W) 2,920 11.6 -32.9°
Reaches altitude 10° 01:18:36 10° 278° (W) 2,010 10.5 -33.4°
Enters shadow 01:20:41 23° 296° (WNW) 1,340 9.3 -33.8°
